Weather History for Omaha, NE

Change the Weather History Date:

Sunday, January 20, 2013

  Actual Average Record
Temperature  
Mean Temperature 17 °F 23 °F  
Max Temperature 21 °F 33 °F 64 °F (1944)
Min Temperature 12 °F 13 °F -22 °F (1883)
Degree Days  
Heating Degree Days 48 42  
Month to date heating degree days 757 840  
Since 1 July heating degree days 3034 3319  
Cooling Degree Days 0 0  
Month to date cooling degree days 0 0  
Year to date cooling degree days 0 0  
Moisture  
Dew Point 8 °F    
Average Humidity 68    
Maximum Humidity 84    
Minimum Humidity 51    
Precipitation  
Precipitation T in 0.02 in 0.61 in (1990)
Month to date precipitation 0.04 0.44  
Year to date precipitation 0.04 0.44  
Snow  
Snow T in 0.10 in - ()
Month to date snowfall T 3.8  
Since 1 July snowfall 7.4 12.8  
Snow Depth 0.00 in    
Sea Level Pressure  
Sea Level Pressure 30.44 in    
Wind  
Wind Speed 9 mph (North)    
Max Wind Speed 18 mph    
Max Gust Speed 23 mph    
Visibility 10 miles    
Events Snow    
T = Trace of Precipitation, MM = Missing Value Source: NWS Daily Summary

Daily Weather History Graph

Daily Weather History Graph

Search for Another Location

Airport:

Trip Planner

Search our weather history database for the weather conditions in past years. The results will help you decide how hot, cold, wet, or windy it might be!

Date:

Astronomy

Jan. 20, 2013 Rise Set
Actual Time 7:44 AM CST 5:25 PM CST
Civil Twilight 7:14 AM CST 5:55 PM CST
Nautical Twilight 6:40 AM CST 6:29 PM CST
Astronomical Twilight 6:07 AM CST 7:02 PM CST
Moon 12:27 PM CST (1/20) 2:17 AM CST (1/20)
Length of Visible Light 10h 41m
Length of Day
9h 41m
Waxing Gibbous, 66% of the Moon is Illuminated
Jan 20
Waxing Gibbous
Jan 26
Full
Feb 3
Last Quarter
Feb 10
New
Feb 17
First Quarter

Hourly Weather History & Observations

Time (CST) Temp. Windchill Dew Point Humidity Pressure Visibility Wind Dir Wind Speed Gust Speed Precip Events Conditions
12:52 AM 19.9 °F 6.2 °F 10.9 °F 68% 30.39 in 10.0 mi North 15.0 mph - N/A   Clear
1:52 AM 18.0 °F 3.6 °F 10.0 °F 71% 30.37 in 10.0 mi North 15.0 mph - N/A   Clear
2:52 AM 17.1 °F 5.8 °F 8.1 °F 68% 30.39 in 10.0 mi North 9.2 mph - N/A   Scattered Clouds
3:52 AM 17.1 °F 3.6 °F 5.0 °F 59% 30.38 in 10.0 mi North 12.7 mph - N/A   Mostly Cloudy
4:52 AM 16.0 °F 6.3 °F 8.1 °F 71% 30.38 in 10.0 mi NNW 6.9 mph - N/A   Mostly Cloudy
5:52 AM 15.1 °F 3.3 °F 6.1 °F 68% 30.38 in 10.0 mi North 9.2 mph - N/A   Mostly Cloudy
6:52 AM 15.1 °F 6.4 °F 6.1 °F 68% 30.39 in 10.0 mi North 5.8 mph - N/A   Mostly Cloudy
7:52 AM 15.1 °F 5.2 °F 7.0 °F 70% 30.41 in 10.0 mi North 6.9 mph - N/A   Mostly Cloudy
8:52 AM 16.0 °F 6.3 °F 7.0 °F 68% 30.42 in 10.0 mi North 6.9 mph - N/A   Mostly Cloudy
9:52 AM 18.0 °F 6.9 °F 7.0 °F 62% 30.43 in 10.0 mi North 9.2 mph - N/A   Mostly Cloudy
10:52 AM 19.0 °F 9.0 °F 5.0 °F 54% 30.47 in 10.0 mi North 8.1 mph - N/A   Overcast
11:52 AM 19.0 °F 9.0 °F 5.0 °F 54% 30.48 in 10.0 mi NNW 8.1 mph - N/A   Overcast
12:52 PM 19.0 °F 9.0 °F 5.0 °F 54% 30.45 in 10.0 mi North 8.1 mph - N/A   Overcast
1:52 PM 19.0 °F 6.1 °F 5.0 °F 54% 30.45 in 10.0 mi NNW 12.7 mph - N/A   Overcast
2:52 PM 18.0 °F 4.8 °F 9.0 °F 68% 30.46 in 10.0 mi North 12.7 mph - N/A   Overcast
3:52 PM 19.0 °F 6.8 °F 10.0 °F 68% 30.45 in 9.0 mi North 11.5 mph - 0.00 in Snow Light Snow
4:52 PM 18.0 °F 6.1 °F 10.0 °F 71% 30.46 in 9.0 mi North 10.4 mph - 0.00 in Snow Light Snow
5:52 PM 16.0 °F 7.4 °F 10.0 °F 77% 30.47 in 10.0 mi North 5.8 mph - 0.00 in   Scattered Clouds
6:52 PM 15.1 °F 7.7 °F 9.0 °F 77% 30.48 in 10.0 mi North 4.6 mph - N/A   Partly Cloudy
7:52 PM 14.0 °F 2.9 °F 9.0 °F 80% 30.48 in 10.0 mi North 8.1 mph - N/A   Partly Cloudy
8:52 PM 12.9 °F -0.2 °F 8.1 °F 81% 30.48 in 10.0 mi North 10.4 mph - N/A   Partly Cloudy
9:52 PM 14.0 °F 5.1 °F 7.0 °F 74% 30.47 in 9.0 mi North 5.8 mph - 0.00 in Snow Light Snow
10:52 PM 14.0 °F - 8.1 °F 77% 30.47 in 10.0 mi Calm Calm - 0.00 in   Mostly Cloudy
11:52 PM 14.0 °F 5.1 °F 7.0 °F 74% 30.46 in 10.0 mi NW 5.8 mph - N/A   Mostly Cloudy